| time (UTC) | temp C | wind direction | speed KPH | gust KPH | rain 1hr cm | rain 24hr cm | rain mn cm | humidity % | barometer mb |
| 20260506044526 | 0 | 340 | 0.0 | 0.0 | 0.03 | 0.48 | 0.46 | 93 | 1016.0 |
| 20260506043025 | 0 | 340 | 0.0 | 0.0 | 0.00 | 0.46 | 0.43 | 93 | 1016.1 |
| 20260506041529 | 0 | 340 | 0.0 | 0.0 | 0.00 | 0.46 | 0.43 | 93 | 1016.0 |
| 20260506040025 | 0 | 340 | 0.0 | 0.0 | 0.00 | 0.46 | 0.43 | 93 | 1015.7 |
| 20260506034519 | 0 | 340 | 0.0 | 0.0 | 0.00 | 0.66 | 0.43 | 93 | 1015.5 |
| 20260506033026 | 0 | 340 | 0.0 | 0.0 | 0.00 | 0.66 | 0.43 | 93 | 1015.4 |
| 20260506031522 | 0 | 340 | 0.0 | 0.0 | 0.00 | 0.66 | 0.43 | 93 | 1015.1 |
| 20260506030018 | 0 | 340 | 0.0 | 0.0 | 0.00 | 0.66 | 0.43 | 93 | 1014.6 |
| 20260506024511 | 0 | 340 | 0.0 | 0.0 | 0.03 | 0.71 | 0.43 | 93 | 1014.3 |
| 20260506023109 | 0 | 340 | 0.0 | 0.0 | 0.03 | 0.71 | 0.43 | 93 | 1014.1 |
| 20260506021508 | 0 | 340 | 0.0 | 0.0 | 0.03 | 0.71 | 0.43 | 93 | 1013.6 |
| 20260506020006 | 0 | 340 | 0.0 | 0.0 | 0.03 | 0.71 | 0.43 | 93 | 1013.2 |
| 20260506014509 | 0 | 340 | 0.0 | 0.0 | 0.00 | 0.71 | 0.41 | 93 | 1012.9 |
| 20260506013007 | 0 | 345 | 0.0 | 4.8 | 0.00 | 0.71 | 0.41 | 93 | 1012.8 |
| 20260506011502 | 0 | 345 | 0.0 | 0.0 | 0.00 | 0.71 | 0.41 | 93 | 1012.4 |
| 20260506010105 | 0 | 340 | 0.0 | 3.2 | 0.00 | 0.71 | 0.41 | 93 | 1012.2 |
| 20260506004600 | 0 | 340 | 0.0 | 0.0 | 0.00 | 0.71 | 0.41 | 92 | 1012.1 |
| 20260506003057 | 0 | 24 | 0.0 | 0.0 | 0.00 | 0.71 | 0.41 | 92 | 1011.9 |
| 20260506001617 | 0 | 345 | 0.0 | 0.0 | 0.00 | 0.71 | 0.41 | 92 | 1011.9 |
| 20260506000055 | 0 | 338 | 0.0 | 0.0 | 0.00 | 0.71 | 0.41 | 92 | 1011.5 |
| 20260505234553 | 0 | 331 | 0.0 | 0.0 | 0.00 | 0.71 | 0.41 | 92 | 1011.3 |
| 20260505233055 | 0 | 329 | 0.0 | 0.0 | 0.00 | 0.71 | 0.41 | 92 | 1011.0 |
| 20260505231553 | 0 | 333 | 0.0 | 0.0 | 0.00 | 0.71 | 0.41 | 91 | 1010.7 |
| 20260505230047 | 0 | 316 | 1.6 | 9.7 | 0.00 | 0.71 | 0.41 | 91 | 1010.7 |
| 20260505224548 | 0 | 360 | 0.0 | 16.1 | 0.03 | 0.71 | 0.41 | 90 | 1010.8 |
| 20260505223046 | 1 | 329 | 1.6 | 9.7 | 0.05 | 0.71 | 0.41 | 90 | 1010.2 |
| 20260505221544 | 1 | 10 | 1.6 | 12.9 | 0.08 | 0.71 | 0.41 | 90 | 1009.5 |
| 20260505220042 | 1 | 318 | 0.0 | 11.3 | 0.10 | 0.71 | 0.41 | 89 | 1009.7 |
| 20260505214554 | 2 | 348 | 0.0 | 9.7 | 0.08 | 0.69 | 0.38 | 89 | 1009.2 |
| 20260505213051 | 3 | 355 | 0.0 | 6.4 | 0.05 | 0.66 | 0.36 | 90 | 1009.1 |
| 20260505211536 | 3 | 344 | 0.0 | 0.0 | 0.05 | 0.64 | 0.33 | 90 | 1008.9 |
| 20260505210036 | 3 | 24 | 0.0 | 0.0 | 0.03 | 0.61 | 0.30 | 91 | 1008.9 |
| 20260505204538 | 3 | 9 | 0.0 | 0.0 | 0.03 | 0.61 | 0.30 | 91 | 1009.1 |
| 20260505203043 | 3 | 323 | 0.0 | 0.0 | 0.03 | 0.61 | 0.30 | 91 | 1009.3 |
| 20260505200034 | 3 | 74 | 0.0 | 0.0 | 0.00 | 0.58 | 0.28 | 90 | 1009.4 |
| 20260505194534 | 3 | 76 | 0.0 | 0.0 | 0.00 | 0.66 | 0.28 | 90 | 1009.4 |
| 20260505193044 | 3 | 76 | 0.0 | 0.0 | 0.00 | 0.66 | 0.28 | 91 | 1009.3 |
| 20260505191534 | 3 | 76 | 0.0 | 0.0 | 0.00 | 0.66 | 0.28 | 91 | 1009.1 |
| 20260505190036 | 4 | 72 | 0.0 | 0.0 | 0.03 | 0.66 | 0.28 | 92 | 1008.9 |
| 20260505184530 | 3 | 72 | 0.0 | 0.0 | 0.03 | 0.66 | 0.28 | 92 | 1009.2 |
| 20260505183045 | 3 | 61 | 0.0 | 0.0 | 0.03 | 0.66 | 0.28 | 92 | 1009.6 |
| 20260505181530 | 3 | 61 | 0.0 | 0.0 | 0.03 | 0.66 | 0.28 | 92 | 1009.6 |
| 20260505180036 | 3 | 63 | 0.0 | 0.0 | 0.00 | 0.64 | 0.25 | 92 | 1009.5 |
| 20260505174536 | 3 | 26 | 0.0 | 0.0 | 0.00 | 0.64 | 0.25 | 92 | 1009.5 |
| 20260505173036 | 3 | 26 | 0.0 | 0.0 | 0.00 | 0.64 | 0.25 | 92 | 1009.7 |
| 20260505171533 | 3 | 26 | 0.0 | 0.0 | 0.00 | 0.64 | 0.25 | 93 | 1009.6 |
| 20260505170025 | 3 | 25 | 0.0 | 0.0 | 0.00 | 0.64 | 0.25 | 93 | 1009.4 |
| 20260505164534 | 2 | 355 | 0.0 | 0.0 | 0.00 | 0.64 | 0.25 | 93 | 1009.4 |
| 20260505163024 | 2 | 355 | 0.0 | 0.0 | 0.00 | 0.64 | 0.25 | 93 | 1009.4 |
| 20260505161524 | 2 | 355 | 0.0 | 0.0 | 0.00 | 0.64 | 0.25 | 93 | 1009.4 |
| 20260505153028 | 2 | 11 | 0.0 | 0.0 | 0.03 | 0.64 | 0.25 | 93 | 1009.3 |
| 20260505151522 | 1 | 11 | 0.0 | 0.0 | 0.03 | 0.64 | 0.25 | 93 | 1009.3 |
| 20260505124508 | 1 | 355 | 0.0 | 6.4 | 0.03 | 0.56 | 0.18 | 91 | 1008.0 |
| 20260505123006 | 1 | 307 | 0.0 | 0.0 | 0.03 | 0.56 | 0.18 | 91 | 1007.8 |
| 20260505121505 | 1 | 5 | 0.0 | 4.8 | 0.05 | 0.56 | 0.18 | 91 | 1007.8 |
| 20260505120003 | 1 | 333 | 0.0 | 8.0 | 0.10 | 0.56 | 0.18 | 91 | 1007.8 |
| 20260505114605 | 1 | 360 | 0.0 | 9.7 | 0.10 | 0.53 | 0.15 | 90 | 1007.5 |
| 20260505114502 | 1 | 360 | 0.0 | 9.7 | 0.10 | 0.53 | 0.15 | 90 | 1007.5 |
| 20260505113059 | 2 | 330 | 0.0 | 8.0 | 0.10 | 0.53 | 0.15 | 90 | 1007.5 |
| 20260505111559 | 2 | 33 | 1.6 | 11.3 | 0.10 | 0.51 | 0.13 | 90 | 1007.3 |
| 20260505101546 | 3 | 30 | 0.0 | 12.9 | 0.03 | 0.41 | 0.03 | 90 | 1006.0 |
| 20260505100039 | 4 | 348 | 3.2 | 14.5 | 0.03 | 0.41 | 0.03 | 90 | 1005.8 |
| 20260505094537 | 5 | 319 | 3.2 | 14.5 | 0.03 | 0.41 | 0.03 | 90 | 1005.5 |
| 20260505093042 | 5 | 5 | 3.2 | 14.5 | 0.00 | 0.38 | 0.00 | 90 | 1005.5 |
| 20260505091540 | 5 | 355 | 3.2 | 16.1 | 0.00 | 0.38 | 0.00 | 90 | 1005.4 |
| 20260505090043 | 5 | 17 | 1.6 | 16.1 | 0.00 | 0.38 | 0.00 | 89 | 1004.8 |
| 20260505084526 | 5 | 338 | 1.6 | 14.5 | 0.00 | 0.38 | 0.00 | 89 | 1004.9 |
| 20260505083025 | 6 | 323 | 0.0 | 9.7 | 0.00 | 0.38 | 0.00 | 89 | 1005.0 |
| 20260505081524 | 6 | 355 | 3.2 | 14.5 | 0.00 | 0.38 | 0.00 | 89 | 1005.1 |
| 20260505080033 | 7 | 250 | 0.0 | 0.0 | 0.00 | 0.38 | 0.00 | 90 | 1004.9 |
| 20260505074514 | 7 | 250 | 0.0 | 0.0 | 0.00 | 0.38 | 0.00 | 90 | 1004.7 |
| 20260505073016 | 7 | 250 | 0.0 | 0.0 | 0.00 | 0.38 | 0.00 | 90 | 1004.8 |
| 20260505071513 | 7 | 250 | 0.0 | 0.0 | 0.00 | 0.38 | 0.00 | 89 | 1004.7 |
| 20260505070018 | 7 | 250 | 0.0 | 0.0 | 0.00 | 0.38 | 0.00 | 89 | 1004.7 |
| 20260505063009 | 7 | 250 | 0.0 | 0.0 | 0.00 | 0.38 | 0.00 | 89 | 1004.6 |
| 20260505061515 | 7 | 250 | 0.0 | 0.0 | 0.00 | 0.38 | 0.00 | 88 | 1004.5 |
| 20260505060013 | 7 | 250 | 0.0 | 0.0 | 0.00 | 0.38 | 0.00 | 88 | 1004.4 |
| 20260505054505 | 7 | 250 | 0.0 | 0.0 | 0.00 | 0.38 | 0.38 | 87 | 1004.6 |